Theta_e
312 312 312 312 313 311 311 310 310 308 307 308 306 310 302 300 298 307 310 310 307 301 295 297 296 294 295 298 297 299 297 296 297 295 297 295 297 296 295 295 295 296 296 296 295 296 296 298 298 301 303 301 302 304 305 308 309 309 309 311 312 316 307 305 307 311 311 313 314 314 314 312 309 310 311 310 307 308 306 306 309 305 305 302 303 302 306
312 312 312 312 312 311 311 310 310 310 308 309 309 305 300 301 300 303 308 310 307 299 290 290 292 293 296 296 295 299 296 296 295 295 296 296 295 294 294 297 298 295 298 297 294 298 292 298 298 298 302 301 304 305 305 307 306 306 307 306 313 305 308 306 303 304 305 307 310 309 312 311 308 307 309 310 311 311 310 311 312 306 306 305 302 298 305
312 312 312 312 312 311 311 311 310 310 310 311 308 302 302 301 303 303 303 308 305 295 296 294 293 293 294 293 293 294 295 296 297 296 295 297 297 295 294 297 297 295 298 296 297 297 296 294 300 299 299 300 304 304 304 306 305 306 308 310 310 305 307 305 300 297 296 296 297 299 302 305 308 310 309 310 309 310 308 304 307 300 310 310 304 303 311
312 312 312 312 312 311 311 310 310 310 310 309 310 307 303 298 292 298 299 302 302 300 301 299 295 294 295 292 294 295 293 295 297 298 295 297 297 297 297 296 297 295 296 295 295 296 299 296 295 297 298 301 303 303 304 304 304 308 310 310 310 306 308 308 306 304 303 306 312 312 311 308 305 307 309 309 309 311 311 309 305 302 306 307 309 310 311
311 312 312 312 311 311 311 311 310 310 310 309 308 307 303 301 294 293 291 297 299 296 298 296 297 294 296 289 293 291 293 294 295 299 293 297 296 296 295 293 291 292 292 291 292 295 296 299 297 296 296 298 300 304 304 305 306 308 308 308 308 307 304 307 309 308 310 309 309 309 310 308 308 307 307 309 309 309 309 306 304 312 306 300 310 315 311
312 312 312 312 311 311 311 311 310 310 309 309 310 301 302 294 297 298 299 292 290 291 293 296 295 297 297 294 295 292 292 292 291 296 297 297 298 293 294 294 293 292 290 291 289 294 294 295 291 294 294 295 300 301 304 304 306 306 305 308 307 305 302 307 308 307 309 311 306 308 308 309 309 309 308 308 309 309 307 308 309 311 306 304 311 315 312
312 312 312 312 311 311 311 311 310 309 308 308 310 298 301 301 299 298 301 293 295 295 295 296 296 294 296 294 293 292 291 290 293 293 293 295 292 295 289 290 292 292 293 292 289 293 289 289 293 292 292 294 295 297 301 303 306 305 304 306 309 306 303 306 308 308 309 308 308 308 307 308 308 309 309 309 309 308 308 309 310 310 311 312 313 314 312
312 312 312 312 312 312 311 311 311 310 307 309 306 302 297 296 294 294 299 298 296 296 295 295 294 293 295 290 292 289 292 291 293 295 293 290 292 297 292 292 292 292 292 292 289 291 292 291 289 294 293 293 296 294 296 295 301 304 302 303 308 303 302 305 305 304 305 307 307 307 307 306 306 308 309 310 309 310 310 309 310 311 311 311 312 313 312
312 312 312 312 312 312 311 311 311 309 308 306 303 301 303 301 302 301 295 292 295 295 295 293 293 291 294 292 294 293 293 292 294 293 297 294 292 294 292 294 293 293 293 293 292 295 294 295 294 295 295 291 296 293 294 298 296 301 301 303 303 304 302 304 304 300 301 305 305 305 307 306 306 306 308 308 308 307 309 308 310 309 309 311 310 310 311
312 312 313 312 312 312 311 311 311 309 307 305 305 298 305 304 306 303 299 291 296 292 295 294 292 288 292 292 293 293 294 295 295 290 295 297 298 296 296 296 294 293 292 291 293 296 296 296 297 298 298 299 299 300 299 299 297 298 299 303 300 302 300 300 300 297 299 304 306 304 304 304 301 303 306 309 309 310 311 312 313 312 312 310 308 309 317
312 312 312 313 312 312 312 312 312 310 309 304 302 301 303 300 297 299 298 290 293 294 293 292 291 293 294 294 293 295 295 295 295 290 291 296 296 298 297 296 295 292 292 295 299 299 298 299 299 300 299 299 299 300 300 300 301 300 299 299 301 302 300 299 304 298 299 304 304 305 301 295 297 309 311 310 308 309 308 308 310 312 313 312 315 316 319
312 312 312 312 312 312 312 312 312 311 308 309 307 303 306 308 304 299 293 287 290 295 292 290 291 293 294 295 295 293 293 294 295 297 293 296 297 298 298 297 297 292 299 303 301 301 301 300 300 300 300 299 300 300 300 299 300 302 301 298 298 299 300 299 302 299 299 301 301 297 292 295 308 312 313 312 311 311 309 310 311 311 313 313 312 314 315
312 312 312 312 312 312 312 312 312 311 310 312 308 301 307 311 303 298 294 289 288 292 290 292 295 295 296 295 294 294 295 296 297 298 297 296 296 297 298 297 296 298 304 300 301 300 296 294 296 297 296 298 298 298 298 298 298 300 300 302 299 297 298 300 299 300 301 300 298 290 293 305 308 310 313 315 313 312 310 308 310 312 312 313 312 314 315
312 312 312 312 312 312 312 312 311 312 311 311 307 306 307 309 301 298 294 289 290 294 294 293 294 293 294 294 294 295 296 296 298 298 294 297 297 297 299 300 301 303 302 303 300 299 295 295 291 292 292 294 295 293 296 298 299 298 298 300 301 299 299 299 296 301 295 297 298 297 305 303 306 307 310 312 310 310 308 304 308 313 315 315 315 317 318
312 312 312 312 312 312 312 312 312 312 311 310 310 307 306 308 306 301 300 295 287 292 295 288 292 293 294 294 294 293 294 295 295 295 299 299 297 299 299 301 304 303 304 300 296 296 292 291 288 287 289 288 285 288 295 293 298 300 299 299 301 302 297 300 296 296 300 297 295 297 297 295 301 308 313 317 316 315 315 312 310 317 318 320 322 322 323
311 312 312 312 312 312 312 312 312 312 311 310 310 308 308 309 309 306 300 294 290 284 292 296 297 295 293 294 295 294 293 293 295 295 295 297 296 299 301 303 304 304 302 299 298 294 293 288 286 286 285 287 291 291 290 294 294 298 299 299 298 300 301 300 297 295 297 296 293 294 294 298 308 309 312 316 318 317 318 311 304 317 320 323 323 320 321
311 312 312 312 312 312 313 313 313 312 312 311 309 309 307 311 308 304 300 297 293 288 298 298 297 297 294 293 296 296 298 293 294 291 291 292 295 297 298 302 304 302 301 298 296 294 291 290 290 289 289 292 289 289 294 291 291 293 296 297 296 295 295 296 295 295 296 296 293 293 299 300 307 311 312 315 316 314 312 299 301 322 323 323 325 323 325
312 312 312 313 313 313 313 313 314 313 312 312 311 307 307 312 310 308 301 297 291 291 296 298 295 293 292 294 293 297 298 297 297 298 295 297 298 297 298 299 297 301 302 293 292 289 290 288 286 287 285 294 295 293 286 291 290 291 290 292 292 292 293 293 291 293 295 294 295 298 301 305 308 312 314 314 315 311 302 296 312 322 322 325 323 324 325
312 312 313 313 313 313 313 313 314 313 313 311 313 310 309 312 311 308 303 298 294 288 298 301 302 298 299 301 298 298 299 297 296 292 294 292 295 299 299 299 300 294 300 294 294 288 288 288 292 289 287 292 293 288 295 290 290 295 295 292 292 293 293 293 294 292 293 295 293 294 300 307 309 315 314 313 308 299 299 313 321 326 323 324 326 323 327
312 312 312 313 313 313 313 313 313 313 313 312 310 305 309 312 311 308 302 296 297 293 297 298 300 298 301 298 295 295 297 299 298 295 293 290 299 300 296 292 296 296 294 296 287 292 290 288 289 293 289 290 292 295 292 294 296 293 293 296 293 294 291 290 290 293 294 296 294 291 288 305 311 308 308 312 305 309 316 320 322 326 323 323 325 326 329
312 312 312 312 313 313 313 313 313 313 313 313 311 307 306 312 310 311 310 304 298 292 294 301 301 300 302 300 301 301 298 295 297 294 297 297 301 296 287 289 293 294 292 293 287 288 289 288 290 291 293 292 294 294 288 291 292 298 297 295 294 301 292 292 294 296 289 290 290 291 300 308 311 311 303 311 315 316 320 321 318 323 323 324 324 326 330
311 312 312 312 312 312 313 312 313 312 313 313 311 310 305 310 310 311 310 310 300 297 300 305 305 304 305 305 306 306 304 303 303 303 298 296 300 297 297 298 298 297 299 299 293 293 296 293 294 290 289 292 297 290 294 290 287 295 300 299 290 300 296 299 293 301 297 293 296 305 307 309 311 311 311 314 316 318 320 320 321 322 324 327 326 327 329
311 311 312 312 312 312 312 312 312 313 312 313 312 309 304 309 309 312 310 301 304 306 306 303 304 305 307 308 309 309 309 309 307 305 304 298 296 299 298 298 297 302 302 302 296 295 295 295 289 294 291 292 293 291 294 293 290 293 292 298 296 303 303 305 301 298 304 304 304 307 308 309 311 311 313 313 313 315 318 318 319 322 324 325 326 327 328
311 312 312 312 312 312 312 313 312 312 312 313 312 308 308 312 313 310 305 303 300 295 300 302 299 297 300 301 305 309 309 309 308 308 308 304 295 296 300 301 302 301 301 303 303 297 296 296 296 298 290 296 297 292 288 287 291 295 294 294 297 300 302 301 296 301 296 292 305 305 306 308 309 310 311 313 314 315 318 318 318 320 322 323 327 328 328
311 311 312 312 312 312 312 312 312 312 312 312 312 313 312 311 313 309 303 296 297 295 290 296 299 303 305 307 308 307 308 310 310 308 306 306 303 298 296 302 305 301 300 303 306 302 301 295 296 295 290 298 298 289 297 293 293 300 291 295 295 296 303 298 299 299 296 297 303 305 307 308 308 308 308 309 312 316 318 318 319 320 322 323 326 328 329
311 311 312 312 312 312 312 312 312 311 311 311 312 310 308 310 314 312 308 307 306 300 292 291 297 306 308 305 304 306 308 308 307 306 306 306 306 306 304 304 304 307 305 305 304 299 298 298 297 296 293 294 302 294 294 296 295 300 296 295 299 300 303 295 299 297 299 302 303 304 305 306 307 308 309 310 311 315 315 316 316 317 319 322 324 327 329
311 311 312 312 312 312 312 311 311 311 311 311 312 312 313 315 315 310 305 304 299 293 295 291 299 303 305 303 306 308 307 306 307 306 305 305 305 306 305 304 302 303 302 301 303 301 300 298 296 294 297 297 301 298 298 297 297 295 295 298 302 299 295 299 298 294 294 295 299 303 297 298 303 306 311 312 313 313 314 314 315 316 317 319 320 323 328
311 311 311 312 312 312 311 311 311 311 310 311 312 314 317 315 316 314 313 310 302 295 297 297 298 301 306 303 306 307 307 307 307 305 305 304 305 304 303 303 302 299 299 298 296 296 295 293 293 300 299 300 296 294 300 301 300 297 296 298 301 297 298 298 295 294 294 301 303 305 305 305 306 307 309 311 312 312 312 313 313 315 317 319 319 320 325
311 311 311 311 311 311 311 311 311 311 311 311 315 316 315 316 318 315 313 314 309 302 300 300 303 300 296 300 307 306 307 307 306 305 304 304 304 304 303 302 301 300 299 299 297 297 295 296 299 296 295 300 296 294 296 291 293 291 296 302 303 303 303 302 301 301 302 304 304 305 304 303 305 309 311 311 312 311 311 312 313 314 316 318 320 321 323
311 311 311 311 311 311 311 311 311 311 311 315 314 310 306 307 314 316 314 312 310 306 297 295 292 297 306 305 304 305 305 306 306 305 304 303 303 304 304 302 302 302 300 297 297 294 295 296 298 300 301 303 295 295 291 293 292 295 302 303 304 306 305 304 305 302 301 306 306 307 307 307 308 310 310 311 313 312 310 310 311 312 314 317 319 320 322
311 310 310 311 310 310 310 311 312 310 310 314 311 303 301 297 305 314 313 313 314 308 301 299 295 301 300 306 305 303 305 305 304 303 303 303 304 304 305 304 303 302 298 298 297 297 298 294 295 296 300 300 298 294 291 291 290 293 299 302 303 303 303 305 307 307 306 306 307 308 308 307 308 308 308 309 310 311 311 311 312 314 314 316 317 318 321
310 310 310 310 310 310 311 311 311 310 316 315 310 307 306 307 312 314 314 313 314 306 300 294 294 296 296 300 304 307 305 305 305 304 304 304 302 304 303 303 300 302 300 297 298 297 295 297 295 296 295 299 298 294 294 291 288 291 298 300 303 304 306 305 305 306 307 307 306 305 304 305 307 305 304 310 311 313 312 312 312 312 314 316 318 319 321
310 310 309 310 310 311 311 311 311 313 316 311 308 309 308 306 309 312 313 313 309 304 303 297 292 295 294 297 302 305 307 305 304 304 302 305 301 304 300 303 302 301 304 299 296 293 299 298 298 294 298 302 296 295 292 290 291 296 298 300 300 302 302 304 306 307 307 307 306 301 300 303 306 309 310 311 311 311 312 311 311 312 312 314 316 320 322
310 309 309 310 310 310 311 311 310 309 309 313 311 311 315 309 311 310 314 313 306 306 303 296 292 292 294 302 296 303 307 300 299 303 298 306 306 302 301 301 302 297 300 296 299 298 300 299 295 296 299 297 299 293 288 292 297 298 299 300 302 302 302 303 303 303 304 304 305 306 306 307 309 310 310 310 311 313 313 311 311 312 311 311 314 319 323
309 309 310 310 310 310 311 311 315 314 311 311 313 315 315 308 310 312 312 309 298 296 296 297 297 290 291 294 294 299 306 302 298 303 299 305 309 301 303 297 300 294 297 304 299 297 294 295 299 292 290 297 291 287 290 294 297 298 299 299 300 301 302 301 302 304 306 306 307 307 307 308 307 307 307 309 309 311 310 310 311 311 312 315 317 320 321
309 310 311 311 311 311 315 314 315 314 311 310 311 311 311 311 311 313 312 310 305 297 294 294 295 290 291 287 289 297 306 300 303 303 304 305 303 306 304 300 291 296 302 297 291 296 291 299 296 288 295 289 287 290 292 295 294 294 296 296 299 301 302 302 303 306 307 308 307 308 307 307 307 308 309 309 310 311 311 309 309 311 314 317 320 323 321
309 310 309 310 313 315 313 314 314 312 310 314 314 313 312 312 312 311 308 306 309 306 297 294 290 291 293 292 295 299 302 294 304 300 303 300 298 302 302 297 291 298 296 293 293 290 295 304 292 287 288 287 289 295 296 296 296 297 300 304 307 309 307 306 307 307 307 307 307 305 306 306 307 309 309 309 310 312 312 310 309 313 317 319 319 318 320
309 309 315 314 315 312 311 312 313 314 312 311 312 309 307 308 303 302 303 299 304 303 299 297 291 295 299 295 293 303 301 298 304 298 299 304 299 298 302 297 296 297 288 290 294 302 298 295 290 287 288 295 296 297 299 302 303 305 306 307 308 310 310 310 309 307 305 303 303 304 306 306 307 309 309 310 311 311 312 313 314 318 320 323 321 322 321
310 317 315 317 313 307 309 313 318 313 314 314 311 306 305 307 305 302 302 302 301 297 300 296 293 298 295 295 298 306 301 298 298 301 296 302 298 294 300 292 299 298 290 291 295 302 290 290 289 288 287 291 293 298 303 303 305 305 306 308 311 314 315 313 312 308 306 305 306 308 309 308 308 309 310 311 312 313 315 316 317 320 322 322 320 321 321
322 318 316 315 311 312 316 316 313 311 313 307 309 307 303 308 302 298 308 299 298 302 302 297 302 300 300 297 297 298 307 302 296 296 299 301 305 296 300 298 297 294 287 288 293 301 290 286 289 288 287 292 296 301 302 303 303 304 306 307 310 312 313 312 313 315 313 312 313 313 314 314 315 313 312 313 315 315 315 316 317 319 319 320 322 321 321
318 319 316 312 316 319 318 317 317 313 309 309 309 308 306 298 307 307 306 301 300 303 308 305 306 303 302 302 301 298 308 307 306 307 304 300 305 304 298 291 300 291 288 288 298 299 294 289 288 287 287 295 298 300 302 302 303 304 305 307 309 309 309 310 311 313 317 317 317 314 314 314 314 316 316 318 318 318 317 317 318 320 322 322 321 321 323
319 316 316 321 321 318 319 317 314 312 309 310 302 295 301 303 307 306 305 297 298 304 305 309 304 306 305 307 307 308 308 311 309 307 305 299 303 301 296 299 300 290 286 296 301 297 292 285 286 286 292 298 301 302 302 302 303 304 304 306 307 308 308 308 309 310 312 311 312 314 316 317 316 316 316 317 316 316 317 320 319 320 321 323 323 323 325
304 309 316 320 319 316 317 304 309 309 294 295 294 292 300 294 298 299 300 305 309 307 305 314 313 316 314 313 309 312 311 312 308 307 304 301 308 305 297 294 293 287 292 303 296 289 286 285 285 289 296 299 302 302 302 303 304 304 304 305 306 307 307 307 307 308 309 309 310 310 311 311 312 313 315 316 317 317 318 319 319 319 323 323 324 325 324
321 320 320 315 308 311 312 292 307 304 294 296 294 290 296 295 300 302 299 301 307 306 307 305 306 309 305 313 311 309 313 310 308 306 304 306 302 295 296 290 291 299 305 293 290 285 286 289 291 295 298 300 303 304 304 304 304 304 304 306 307 307 307 307 307 307 307 308 309 309 309 309 310 311 312 313 313 313 314 315 315 317 320 321 320 320 321
315 309 305 304 299 305 300 290 304 297 291 295 298 298 299 297 300 302 300 307 312 303 308 307 307 307 305 309 316 309 309 304 310 305 299 302 297 298 295 292 297 296 291 286 287 288 288 287 295 298 299 300 303 305 306 306 306 305 304 305 305 306 306 305 305 306 306 306 307 308 307 307 307 308 309 310 310 311 311 311 313 314 315 316 317 317 317
311 303 301 295 291 297 298 293 295 293 301 302 300 302 302 302 303 304 308 310 308 308 305 305 307 307 303 307 304 302 307 306 303 302 304 302 295 291 298 300 298 291 289 288 285 284 286 291 297 298 300 301 302 305 306 307 307 308 305 303 304 305 305 305 305 306 306 306 306 306 306 306 306 307 307 308 308 309 309 310 312 311 311 311 312 313 314
308 311 305 300 294 298 305 294 297 301 303 303 304 305 305 305 307 308 309 310 308 313 309 309 308 307 303 303 304 303 304 304 300 301 303 295 294 296 301 294 287 288 284 283 285 287 290 297 299 300 301 302 303 304 305 306 307 307 306 306 305 305 306 307 306 305 306 307 306 305 305 305 306 306 307 306 307 307 309 309 309 310 310 309 309 310 310
299 308 305 294 292 297 296 301 306 305 306 306 306 307 308 309 307 305 309 311 311 311 309 310 308 308 306 309 308 301 303 303 299 298 301 298 299 295 290 291 288 289 290 288 288 294 296 297 300 301 302 303 304 303 304 305 306 307 307 307 306 306 305 305 305 306 307 306 306 305 306 306 306 306 306 305 306 306 307 307 308 308 308 309 309 308 308
312 301 298 297 303 304 302 305 305 301 303 305 306 307 306 305 305 306 309 311 310 309 310 309 306 306 302 305 303 301 298 302 295 292 300 297 292 287 287 284 286 286 292 294 294 296 298 299 301 303 303 303 304 304 304 304 305 305 306 306 306 307 308 306 306 306 307 307 307 306 306 307 307 306 306 305 305 305 307 307 307 307 308 307 307 307 308
302 301 306 301 303 304 306 306 304 300 302 303 304 303 305 304 304 307 310 309 310 309 309 308 308 302 301 302 295 298 296 300 298 296 295 292 293 293 290 285 287 288 293 299 299 299 300 302 302 302 302 303 304 304 304 304 305 305 305 306 307 307 307 307 307 308 307 307 307 307 307 308 307 307 306 306 306 307 307 307 306 306 307 307 307 307 307
310 303 304 308 303 301 303 298 298 298 299 300 302 302 304 303 304 306 310 309 308 307 305 301 302 300 296 295 294 290 292 301 297 294 295 294 297 294 289 287 292 297 299 302 303 303 303 303 302 301 302 302 303 304 305 305 305 305 305 305 306 306 307 307 307 307 307 307 307 308 307 307 308 309 309 309 308 307 306 307 307 307 307 307 307 307 307
301 299 302 306 307 307 306 306 305 303 303 303 303 305 306 304 305 307 310 309 307 302 300 303 301 297 292 291 295 298 302 297 293 295 293 296 298 292 292 293 297 300 300 300 301 303 303 304 306 305 303 303 303 303 304 305 305 305 305 305 305 305 305 305 306 306 307 307 307 307 307 308 308 308 308 306 305 305 304 304 306 306 306 306 306 307 306
Wind_Speed
17 17 17 17 15 16 16 17 18 18 20 14 13 13 7 8 8 8 7 12 14 11 4 4 5 6 7 9 7 9 8 10 10 12 10 10 7 9 7 11 14 12 14 17 17 17 13 13 12 13 5 6 6 9 12 12 11 4 7 9 13 6 8 8 13 13 14 17 18 20 21 21 22 21 19 17 17 18 13 10 8 10 11 12 8 7 4
17 17 17 16 15 15 15 16 17 18 17 14 13 11 8 10 9 5 8 10 11 9 7 8 8 7 8 9 11 5 8 8 11 11 13 8 9 11 10 10 8 14 17 16 15 15 12 11 16 15 6 4 8 6 10 13 6 4 5 4 6 12 12 12 10 9 11 14 16 17 18 19 17 16 19 20 18 19 16 11 7 9 11 12 10 10 7
17 17 15 14 14 14 14 14 16 17 17 14 10 10 10 8 8 3 8 8 8 7 7 7 7 9 9 11 12 9 8 6 8 12 11 9 8 10 8 9 13 13 14 17 16 16 17 13 12 14 12 4 8 5 7 9 8 8 10 11 9 7 12 14 14 17 17 16 17 17 18 21 15 17 22 24 24 22 16 15 11 7 9 13 10 9 5
16 17 15 14 14 14 13 13 14 16 16 17 11 9 10 9 10 9 8 8 4 4 4 5 9 9 9 11 8 9 9 6 8 8 8 3 9 8 9 8 12 11 13 14 13 16 16 16 9 10 8 9 1 4 8 6 9 11 16 14 8 7 9 15 15 14 13 4 3 4 14 15 18 22 23 25 24 22 18 12 12 12 8 9 9 7 11
16 16 16 14 14 14 13 13 13 14 14 14 11 11 8 10 8 9 10 9 2 8 6 8 8 8 10 8 7 10 10 9 6 5 8 6 6 8 3 7 11 10 13 12 15 16 15 18 17 12 13 8 14 4 8 5 6 14 13 3 6 5 11 14 19 24 7 7 8 11 9 14 21 20 22 22 25 23 22 17 14 10 9 10 10 11 7
16 17 16 14 13 13 12 12 12 12 14 15 9 9 8 7 7 8 6 8 9 11 8 10 11 12 11 9 8 10 10 9 9 6 4 8 9 9 1 4 7 10 9 12 11 12 16 7 14 19 16 15 11 9 8 5 6 10 6 3 5 6 12 14 15 23 15 8 7 9 8 12 8 20 22 25 24 26 25 22 18 14 12 9 12 12 9
17 17 16 15 14 13 12 12 11 11 13 13 8 6 7 7 7 8 9 9 10 11 13 14 12 12 10 7 9 8 9 11 8 9 9 8 6 2 8 7 8 10 8 7 9 11 10 7 14 11 13 14 15 9 6 3 7 7 5 4 3 5 8 14 20 16 16 11 11 8 9 5 10 11 22 22 23 25 25 22 20 18 12 11 10 17 17
19 18 18 16 13 14 12 13 11 9 13 13 8 6 9 7 8 8 8 10 11 11 11 10 10 9 8 8 1 2 8 10 9 8 10 10 6 5 8 9 9 9 9 8 8 10 10 10 10 13 14 16 10 11 10 12 11 10 7 5 2 5 7 9 3 7 15 10 7 7 7 5 6 6 9 16 24 21 23 22 20 19 15 15 8 10 12
20 20 19 18 17 13 13 12 10 8 7 9 7 7 4 8 9 7 8 10 9 10 9 9 9 8 7 6 6 9 9 11 9 10 9 9 8 8 10 9 10 9 9 8 10 10 10 11 12 12 14 12 13 9 8 13 11 11 8 4 6 7 4 3 6 10 11 14 13 10 11 8 9 9 12 7 12 22 20 18 17 19 17 15 14 11 9
21 22 21 20 18 15 13 12 10 7 3 6 5 7 5 6 8 9 7 9 10 11 10 10 8 7 5 6 9 9 11 12 11 10 5 4 7 9 10 9 10 10 10 7 7 9 11 12 13 12 13 14 15 13 12 12 11 9 9 7 7 4 6 5 9 10 10 14 14 9 10 7 11 16 13 12 9 7 7 9 7 9 9 10 10 7 4
22 23 23 22 20 19 16 14 13 8 5 7 5 6 6 4 7 7 6 8 10 10 10 10 10 7 10 8 10 11 12 12 10 10 7 9 10 9 11 12 10 8 9 10 8 9 13 14 14 14 15 16 17 14 13 15 12 10 9 8 6 5 5 8 4 10 11 14 13 11 12 15 15 9 11 12 14 14 14 12 12 11 10 8 7 7 7
23 23 24 24 22 22 20 17 14 11 8 8 8 8 7 4 4 4 6 6 9 10 9 10 11 10 13 13 12 11 11 11 11 10 13 11 13 12 13 12 9 9 5 7 11 11 13 15 17 16 18 17 17 17 18 16 14 11 10 10 9 8 5 7 3 7 12 10 6 8 15 16 6 7 11 15 16 14 14 15 15 14 15 14 13 11 8
23 25 25 25 24 22 20 19 16 14 11 9 6 10 6 3 5 4 5 6 9 9 10 12 13 14 14 14 12 11 11 11 12 12 12 13 12 12 9 10 11 10 10 11 11 12 11 11 11 11 13 14 16 16 18 17 16 16 12 10 9 8 6 5 6 6 7 8 10 10 10 6 12 7 2 5 9 17 18 18 17 14 14 15 15 14 13
26 25 25 24 24 22 21 19 17 15 14 10 9 8 6 4 7 4 4 4 8 10 9 13 13 12 11 13 13 14 13 12 10 9 11 8 10 11 10 8 10 11 11 10 11 10 9 6 8 6 8 10 12 14 16 16 16 16 16 14 10 10 7 8 8 5 8 5 9 10 8 2 4 9 7 5 8 7 11 13 14 16 9 7 5 3 3
26 26 25 24 24 23 21 20 17 15 15 14 9 8 8 6 6 4 4 5 9 10 9 7 9 13 14 13 12 11 10 9 9 7 6 8 9 6 8 9 9 11 11 11 8 7 8 7 8 8 5 8 8 10 12 13 14 17 15 13 11 8 9 4 7 9 10 8 11 11 11 10 11 7 5 6 7 10 9 9 8 9 14 3 2 4 2
26 26 25 25 24 23 22 20 18 17 16 14 9 8 8 8 6 6 7 6 3 7 7 9 8 11 12 12 12 12 9 9 8 8 9 3 4 6 7 8 8 9 10 9 7 8 7 7 8 6 5 5 8 9 9 10 11 15 15 14 12 10 9 10 10 8 10 12 13 12 12 9 4 11 13 9 2 4 5 6 10 5 4 5 5 8 8
25 25 25 25 24 23 22 21 19 18 16 12 8 8 8 8 8 7 5 6 7 11 5 9 11 12 10 10 9 7 4 7 7 8 8 6 7 8 8 7 8 11 9 9 8 8 8 8 8 6 6 4 5 5 6 7 9 12 16 15 14 12 9 9 11 13 11 11 12 12 9 4 5 7 5 9 5 5 7 9 10 7 3 4 0 2 1
26 26 26 25 24 23 23 22 21 19 16 13 8 6 5 7 11 8 6 9 10 9 10 11 10 9 9 8 10 10 8 7 7 6 9 8 7 5 7 6 8 4 5 7 3 7 6 8 6 4 5 3 6 8 5 2 8 10 13 12 11 11 10 10 12 13 13 13 11 10 10 3 5 6 4 6 4 4 10 8 6 4 6 4 4 1 3
26 26 25 25 24 23 23 22 21 20 18 14 9 8 7 8 9 10 8 8 8 8 3 7 11 12 10 10 12 11 9 10 8 8 7 8 2 5 10 9 6 5 5 4 5 5 7 6 3 2 5 1 3 4 4 5 3 3 8 13 12 12 9 9 10 13 14 14 12 10 9 2 6 9 8 10 4 9 5 6 8 8 2 5 4 6 5
28 25 26 25 24 23 23 22 21 20 18 15 9 8 4 6 10 12 9 8 7 12 11 11 10 15 10 12 10 9 8 8 6 7 7 8 5 10 9 3 4 5 5 1 6 6 7 4 3 5 2 4 2 6 7 6 5 4 6 8 8 11 12 11 12 10 10 12 14 12 11 4 12 12 4 6 5 5 6 10 7 6 2 6 5 5 6
27 27 24 25 24 23 22 21 20 19 17 16 12 7 5 7 10 12 11 10 8 10 10 13 15 17 16 16 16 15 14 12 8 7 7 9 7 7 6 4 4 4 4 3 6 5 4 6 5 5 4 6 1 3 4 5 5 7 7 4 7 5 7 10 11 10 11 11 13 7 1 7 7 6 3 7 6 5 8 9 7 9 7 7 7 5 6
27 25 27 24 23 22 21 21 18 17 17 17 13 7 7 5 11 11 12 10 9 12 10 3 4 10 13 15 14 13 14 15 14 10 9 9 7 8 8 8 8 6 4 5 5 4 3 4 4 5 5 5 4 5 5 7 4 2 6 7 8 6 7 5 4 3 5 5 4 7 7 6 6 5 7 5 7 5 8 8 8 8 9 12 8 9 9
26 26 25 25 23 22 21 20 19 17 16 15 10 5 7 3 6 10 9 11 10 7 8 10 10 13 15 18 18 17 15 13 14 12 10 9 8 7 8 7 6 2 5 3 6 7 6 5 8 7 6 6 6 7 7 7 8 3 5 5 4 5 4 3 6 9 10 14 13 10 5 3 5 4 5 9 10 9 7 9 9 9 11 10 10 11 12
26 26 26 25 24 23 22 21 19 16 14 14 11 7 7 5 4 6 8 8 8 9 10 12 10 9 9 11 9 9 11 12 13 11 8 9 9 6 5 6 6 4 4 3 3 5 6 6 7 6 8 6 7 6 5 5 6 4 8 7 7 6 6 7 7 5 3 6 6 7 6 5 4 6 9 8 8 8 9 8 8 10 12 12 11 11 11
26 26 25 24 24 23 21 20 19 16 15 15 14 8 6 5 5 8 9 8 7 8 7 5 10 12 12 11 10 10 9 7 5 8 8 10 11 9 7 5 4 5 6 4 2 6 5 7 7 6 8 4 4 7 5 8 5 3 5 6 6 6 3 9 10 10 9 10 10 12 11 12 11 8 10 8 6 7 9 9 9 10 11 12 12 11 10
26 25 25 24 24 22 21 20 19 16 15 13 12 7 6 4 5 8 7 5 1 2 6 8 8 6 6 8 9 8 7 7 9 11 11 11 11 12 12 9 9 6 6 6 6 8 7 7 7 8 7 6 4 8 8 6 9 8 10 8 7 4 2 7 4 8 10 12 14 14 15 15 14 13 13 12 7 7 10 10 11 11 11 12 13 11 9
25 25 25 24 23 22 21 20 19 16 12 10 7 7 6 5 6 10 9 7 5 3 6 7 7 5 5 9 8 8 11 10 9 9 10 11 12 11 11 11 10 8 9 8 7 7 7 8 8 9 7 7 7 10 10 11 10 10 10 9 8 9 11 9 9 10 10 10 10 10 11 10 9 11 5 8 7 8 10 11 11 11 10 10 12 13 12
25 25 24 24 23 24 23 21 19 16 10 9 8 7 4 5 6 8 8 7 8 5 6 8 7 8 9 13 10 9 10 10 10 11 12 11 11 11 11 11 10 9 8 8 8 7 8 9 9 6 8 8 8 9 8 10 11 12 13 11 9 10 10 9 11 11 11 10 12 8 8 11 12 13 12 11 8 8 11 11 10 11 11 9 11 13 12
25 25 24 24 24 24 23 20 16 13 9 7 4 3 3 4 3 6 6 6 5 5 6 8 8 7 5 5 2 4 4 6 6 8 8 9 10 10 10 9 9 8 8 8 8 8 9 9 7 8 7 6 6 10 8 9 10 12 11 10 10 10 10 12 13 15 16 14 12 10 10 12 13 14 12 12 10 11 12 11 11 11 12 11 11 11 12
25 24 23 24 24 23 22 19 14 5 4 3 4 2 2 3 2 3 4 5 5 2 4 4 4 2 6 7 5 3 4 5 7 9 10 8 8 8 7 8 8 7 6 6 6 8 8 8 8 8 10 7 8 8 10 10 12 12 12 12 11 9 10 11 11 13 13 11 12 12 13 14 14 15 15 13 11 12 12 12 12 12 13 13 12 12 12
24 24 24 23 22 21 20 16 6 3 5 4 4 3 1 2 4 1 4 5 5 4 2 3 6 7 7 3 3 3 3 5 6 7 9 9 8 8 6 6 7 6 7 7 7 9 7 8 8 9 8 7 5 4 8 10 13 14 16 16 14 13 13 12 12 13 14 13 13 14 15 16 16 15 17 16 15 14 13 12 13 12 13 14 13 13 12
23 21 21 19 18 17 13 6 3 6 4 2 3 4 3 4 3 3 4 4 3 3 3 4 5 4 3 2 1 4 5 5 6 6 6 6 7 6 7 7 7 7 7 7 7 6 8 8 9 9 9 6 6 8 10 11 14 16 18 15 12 12 11 12 13 13 13 14 15 17 19 20 19 19 15 13 13 12 13 12 11 11 12 12 13 13 13
20 18 16 17 15 9 6 3 2 6 3 7 8 6 7 4 4 1 6 4 4 1 1 4 5 4 4 3 5 6 7 5 4 4 6 5 7 5 7 7 7 7 6 6 4 4 3 6 6 9 8 6 5 5 9 14 16 19 18 17 17 17 18 18 17 17 16 15 15 16 16 16 16 17 18 18 18 17 16 13 11 10 11 13 13 12 11
18 16 14 12 9 6 6 6 4 7 6 3 2 3 3 3 3 4 2 2 1 2 2 4 4 4 6 5 4 2 6 6 6 3 3 1 2 3 2 2 3 3 4 7 3 5 6 5 6 7 5 5 4 6 10 14 17 20 21 22 22 21 20 21 20 20 19 17 17 17 18 18 18 17 18 18 17 15 15 13 10 10 12 13 13 12 9
16 13 10 9 6 3 6 5 4 4 2 3 4 4 4 0 4 5 3 1 2 1 2 2 1 4 5 4 3 3 4 5 5 5 4 2 2 1 1 2 2 3 1 2 4 5 6 4 2 5 5 1 4 6 8 12 18 19 21 23 24 22 22 21 22 20 19 17 15 15 16 17 19 19 20 20 17 17 17 13 11 12 12 12 12 11 10
14 10 6 2 3 5 5 8 4 1 1 4 5 5 6 6 5 3 3 2 2 2 2 2 3 4 3 4 5 2 1 5 3 3 2 2 1 2 1 1 3 5 1 2 3 2 3 2 2 4 2 1 5 5 11 15 21 26 27 26 25 22 21 22 21 19 18 17 16 15 17 19 20 20 20 20 19 19 17 15 13 14 15 13 10 6 7
9 4 4 6 5 4 2 4 3 4 4 3 7 9 8 7 4 1 0 1 1 1 2 2 2 3 2 4 3 3 4 4 3 3 1 3 2 2 1 2 2 2 1 3 2 3 5 3 3 5 2 3 7 12 18 20 22 21 19 16 15 13 15 18 20 20 20 20 19 16 16 19 20 18 18 21 20 18 18 17 14 15 17 13 9 10 11
5 5 5 4 4 2 5 6 5 4 8 14 12 6 4 4 1 2 2 2 2 2 3 2 3 3 2 3 3 5 3 3 2 4 1 1 1 3 0 1 1 2 3 2 3 2 4 3 3 2 4 5 10 14 17 18 17 17 16 14 14 13 13 13 15 14 14 16 17 18 18 19 19 19 19 20 19 19 17 13 13 15 13 10 11 9 9
4 5 6 4 4 5 5 5 4 6 5 4 3 3 3 3 3 1 1 0 2 1 3 3 3 2 3 3 4 2 2 4 5 2 3 2 2 3 1 2 1 2 2 3 1 1 3 2 2 2 3 8 11 18 20 19 19 18 18 16 15 13 5 10 12 14 16 16 15 15 14 15 18 19 17 16 16 16 15 13 14 12 10 9 10 10 10
5 4 2 5 6 4 3 7 9 4 4 4 3 4 2 3 3 4 1 1 1 1 2 2 0 2 4 3 4 2 1 3 5 5 5 2 1 3 1 1 2 2 3 5 3 1 4 5 3 5 8 11 14 16 17 19 19 21 21 21 20 17 18 15 7 6 12 13 15 17 14 14 13 13 13 14 14 14 12 11 11 9 8 9 11 12 11
5 3 2 5 4 1 2 2 2 2 3 3 1 1 3 2 3 2 4 6 6 3 1 3 1 3 4 4 4 3 2 2 2 3 4 4 1 2 2 3 3 1 2 5 6 5 4 2 5 9 14 15 14 17 18 18 21 22 22 21 21 19 18 16 16 14 10 3 3 5 8 9 10 11 11 12 10 8 8 9 10 11 11 12 10 10 9
4 4 2 2 1 1 3 3 3 2 1 4 3 3 4 3 3 4 4 7 7 6 6 6 7 7 4 3 0 1 1 1 2 2 2 5 3 4 4 2 2 4 5 6 6 6 5 6 8 9 12 14 15 17 16 18 19 20 23 23 21 22 24 21 19 18 17 16 15 13 11 8 4 2 2 4 5 6 7 5 1 2 8 9 12 13 12
5 5 3 3 5 3 2 3 4 2 2 3 3 2 6 3 5 5 4 2 1 3 7 4 6 5 2 5 4 3 3 2 2 2 1 4 3 0 5 3 3 7 6 4 6 6 10 9 9 12 12 14 13 14 17 18 16 18 20 22 23 22 22 22 21 22 22 20 20 17 14 15 17 16 15 14 13 12 13 12 7 3 1 11 10 11 8
5 5 3 1 2 3 3 3 4 4 3 3 4 6 9 9 9 8 6 5 6 6 7 8 9 9 8 6 6 2 4 3 3 2 4 4 4 5 4 4 6 3 2 4 6 11 8 5 8 9 12 13 14 11 10 13 16 15 18 21 21 24 25 24 21 23 22 20 19 16 17 17 16 19 23 20 18 18 17 14 12 11 14 15 16 13 11
2 3 3 2 2 3 2 2 4 3 5 7 5 9 8 10 9 8 9 5 1 8 7 8 8 8 7 6 2 4 5 5 1 2 6 5 7 7 6 8 6 5 6 8 6 8 8 11 12 12 14 15 14 13 12 11 11 13 15 18 21 21 22 24 23 22 21 19 19 18 16 19 21 16 18 18 16 18 20 15 13 12 18 18 16 13 13
4 3 3 3 2 2 2 1 1 5 7 6 8 9 9 8 7 8 6 8 5 5 7 6 5 6 7 7 6 7 7 6 4 5 4 5 6 8 7 5 4 8 9 8 10 12 10 10 10 12 14 15 14 14 13 11 12 12 14 17 18 20 20 20 20 20 19 19 19 20 21 20 17 15 15 15 18 19 17 15 14 14 19 18 15 13 12
2 3 1 1 3 4 5 5 8 8 7 8 9 8 9 8 7 7 7 7 8 7 2 2 3 4 5 6 3 4 5 4 6 6 4 7 6 4 3 6 6 6 7 9 7 6 8 12 11 11 12 13 15 15 15 14 13 14 13 13 16 17 17 17 18 18 18 18 19 19 18 18 18 17 17 19 19 18 16 17 18 18 19 17 15 15 14
2 2 2 3 4 4 8 9 7 7 9 9 9 10 10 8 8 10 9 9 7 7 6 7 5 3 1 3 3 6 5 5 5 7 5 5 4 5 3 6 5 3 2 3 6 7 8 10 10 11 13 13 14 14 14 15 17 16 14 12 13 14 16 17 17 16 16 17 17 16 16 16 14 13 15 17 16 17 17 17 16 17 18 16 16 16 16
3 3 3 4 5 7 7 7 7 9 9 10 10 9 10 10 11 10 10 9 9 8 6 6 5 6 4 4 4 5 5 5 4 4 4 6 5 4 4 4 5 6 7 6 6 6 7 9 10 12 13 14 14 13 14 14 15 15 16 16 14 13 12 14 16 16 16 14 13 14 14 14 13 13 13 13 14 14 14 14 16 15 15 15 15 15 15
3 4 6 4 5 7 7 7 9 10 9 9 10 11 11 11 10 10 11 10 9 7 4 3 4 5 6 5 3 4 5 6 6 3 6 8 7 6 5 5 5 4 5 5 6 7 7 8 9 11 12 13 14 14 14 14 14 15 15 16 16 15 15 15 15 15 15 14 14 15 15 13 13 12 12 11 11 13 13 14 14 14 14 14 13 13 13
2 2 6 8 10 9 8 10 10 10 10 11 11 11 11 11 12 11 11 9 9 7 6 7 6 5 4 4 3 2 3 3 6 8 5 5 3 3 4 4 4 5 6 5 6 6 7 8 9 9 11 11 12 13 13 14 14 14 14 14 15 15 15 16 16 16 16 15 15 16 16 14 12 11 10 11 13 13 12 12 12 11 12 11 11 11 11
1 4 7 8 8 9 9 7 8 9 9 10 10 10 10 11 11 11 11 9 8 9 9 7 6 5 4 5 5 4 3 3 5 6 7 6 5 5 5 6 6 6 6 6 6 6 6 7 7 9 10 10 11 12 12 13 13 14 14 14 14 14 14 14 14 14 14 14 14 14 12 12 12 13 14 16 15 14 12 11 10 10 9 9 9 10 10
Wind_Direction
342 341 341 339 336 340 339 339 338 340 340 341 352 318 325 339 333 313 13 351 325 313 336 348 335 346 351 328 305 333 315 326 336 330 343 332 337 315 302 307 308 310 323 323 308 281 271 278 266 269 298 74 43 10 335 334 302 303 250 212 216 52 235 256 243 193 205 203 200 194 213 207 202 204 214 207 206 202 209 206 195 206 195 212 207 233 156
339 338 338 335 335 336 339 338 339 338 349 347 333 327 339 319 317 320 22 343 327 314 353 341 344 341 335 330 323 318 328 323 339 335 341 349 341 330 318 316 319 311 314 303 297 305 286 271 269 252 317 309 32 12 333 336 335 320 14 282 154 215 213 245 219 223 197 191 193 194 199 217 208 201 203 212 212 205 210 215 202 216 199 202 204 201 215
333 333 333 332 333 334 336 339 337 338 337 342 331 325 324 316 293 7 353 356 328 352 352 327 332 333 328 333 316 343 305 7 339 334 340 343 340 322 323 331 327 309 310 299 294 284 276 289 306 332 320 313 36 7 329 333 339 359 345 320 319 280 205 209 218 208 200 189 192 194 189 204 206 207 200 208 211 207 197 211 196 223 187 205 203 203 126
328 327 329 329 331 333 333 335 335 334 335 337 328 325 308 345 311 5 329 350 317 314 330 320 332 326 335 325 325 324 311 330 338 331 324 309 337 338 325 339 326 316 320 312 308 291 277 263 279 289 287 292 232 78 306 325 347 344 325 304 297 253 253 216 229 230 208 211 321 278 203 190 211 200 206 197 211 211 209 208 217 205 187 214 203 222 128
323 324 324 327 328 330 331 331 332 331 325 339 329 308 307 324 325 352 333 329 315 328 352 333 328 325 340 304 337 313 313 332 301 47 307 358 347 309 15 336 342 336 335 324 311 296 302 299 267 274 278 322 315 328 312 314 8 317 298 309 303 253 241 228 226 244 261 329 299 336 292 215 206 211 201 203 201 213 207 209 212 187 192 216 188 232 154
317 318 320 321 324 325 328 330 327 328 324 326 316 319 342 326 349 324 358 308 321 320 323 330 313 311 305 297 323 304 313 322 316 327 308 312 38 321 321 338 338 332 325 315 303 312 303 316 6 2 0 340 313 268 178 278 49 310 339 304 284 279 233 226 231 228 242 262 314 312 287 230 248 218 208 204 204 204 213 210 211 194 212 208 176 205 227
312 312 314 315 317 317 324 326 320 321 320 319 322 312 331 316 322 318 339 307 317 308 308 304 304 304 304 314 286 289 318 309 330 326 321 313 129 330 319 325 331 327 320 308 298 307 330 344 348 8 329 325 306 292 170 147 13 327 338 316 334 282 236 235 220 226 232 228 247 287 259 272 253 253 214 206 208 203 208 212 207 209 205 223 185 190 209
309 309 309 310 309 312 315 320 315 311 321 309 309 313 317 327 331 321 317 305 298 299 304 308 304 300 298 282 295 337 292 306 328 317 322 316 322 355 301 312 325 324 312 303 293 301 309 316 325 323 322 307 324 341 7 5 342 335 338 326 39 308 175 26 309 267 236 235 218 242 292 285 261 265 303 224 204 208 204 208 207 208 211 206 201 167 203
307 307 306 306 307 305 308 310 314 305 325 324 327 317 315 311 315 314 306 302 305 308 298 295 298 293 289 281 332 321 314 308 329 309 311 314 319 310 314 318 310 306 283 280 290 292 299 300 295 297 293 301 305 316 326 328 323 325 332 331 330 262 305 318 263 240 242 221 218 219 237 249 265 271 228 239 229 205 196 206 203 203 205 202 201 202 191
306 305 304 303 303 304 302 305 307 295 235 295 298 291 330 316 310 302 295 290 296 297 301 294 290 284 313 295 298 297 309 302 310 310 314 287 261 270 281 302 304 287 285 281 279 293 289 290 286 282 278 274 281 276 283 296 305 309 302 322 298 344 318 253 201 232 233 217 218 212 229 259 259 228 218 214 214 250 209 217 221 223 214 206 211 199 171
304 303 301 301 301 301 302 305 307 290 259 282 282 286 305 300 307 314 301 281 288 293 306 302 297 312 299 290 295 296 298 304 302 300 306 302 298 301 297 294 291 296 289 303 321 294 282 280 278 275 270 268 272 277 272 271 267 282 294 295 296 301 288 288 241 225 216 210 201 219 225 224 222 207 220 220 222 210 219 207 209 212 215 226 212 220 186
301 300 300 301 303 305 306 304 297 288 266 275 269 268 268 286 287 272 286 274 281 300 301 300 308 308 299 302 295 294 296 300 304 303 291 295 297 298 296 288 284 282 326 312 291 286 286 275 267 257 254 256 256 256 263 267 269 259 264 270 292 309 285 251 215 246 206 143 146 203 223 230 215 224 225 228 229 233 232 233 227 221 220 228 231 229 239
300 302 303 303 304 305 304 303 298 293 276 275 257 265 265 218 264 267 285 284 278 288 295 302 310 299 295 294 296 297 297 295 286 285 284 286 288 288 293 301 294 298 317 301 300 295 288 289 279 272 273 257 238 242 245 243 247 256 265 263 263 269 245 242 241 249 283 208 179 209 232 253 218 184 291 320 259 224 226 233 234 236 229 221 228 229 226
305 305 306 305 305 306 306 305 301 292 277 264 255 253 259 225 259 245 220 258 267 271 294 299 296 300 309 310 306 303 304 297 297 290 284 282 290 293 287 284 299 310 303 305 293 298 284 275 290 270 239 235 235 230 226 230 234 238 236 238 241 250 270 256 236 242 242 236 200 213 105 70 192 184 195 206 219 216 223 226 214 225 239 244 255 238 251
306 307 306 306 306 308 307 304 299 292 281 270 262 256 252 232 229 237 204 234 266 278 281 276 296 310 309 302 306 308 302 302 296 294 303 291 279 290 308 301 300 301 308 305 298 293 280 286 289 289 248 216 210 225 215 224 210 223 226 225 226 222 241 236 263 225 227 224 209 214 210 215 189 203 176 199 217 224 217 237 237 196 216 198 182 253 270
307 307 307 308 308 307 306 304 302 297 296 283 270 250 243 218 210 227 227 220 259 279 239 245 297 317 305 300 302 299 302 305 313 308 295 274 292 298 295 302 301 304 294 288 296 293 288 277 263 254 239 211 226 226 200 193 206 192 207 204 207 219 224 263 230 239 212 222 226 216 224 220 291 162 178 176 130 168 148 185 222 134 137 120 249 250 251
307 308 308 308 308 307 306 305 305 301 296 281 269 255 246 185 188 210 227 222 215 239 285 303 311 306 300 290 287 274 328 316 329 313 311 308 325 313 300 320 309 282 288 286 274 262 257 254 262 267 266 294 282 198 204 213 201 182 185 190 198 201 211 211 223 230 221 216 218 222 218 188 182 127 191 157 170 111 204 196 191 103 69 62 308 257 274
308 308 309 309 309 309 308 309 307 306 303 289 270 249 250 190 199 183 217 226 232 254 248 255 264 271 270 298 295 300 297 282 276 290 281 300 293 317 323 307 301 310 24 288 298 274 285 277 279 312 291 253 273 283 244 257 227 179 178 187 181 195 200 204 219 216 221 230 223 227 223 143 9 116 129 117 186 196 202 205 101 35 44 76 26 350 21
308 309 309 309 310 310 311 310 310 309 308 302 295 277 242 215 192 197 207 219 222 242 228 231 229 249 273 285 276 286 289 293 296 293 292 293 351 333 307 291 331 282 61 297 315 285 252 253 277 293 296 331 316 274 313 250 300 12 200 185 194 195 193 201 219 222 217 212 226 228 224 329 179 159 167 117 158 200 167 2 306 314 3 30 6 1 4
308 310 309 310 310 312 312 311 310 309 307 305 304 289 275 184 185 186 205 233 226 245 252 251 244 253 258 269 274 271 276 264 260 273 284 286 341 322 305 243 31 278 276 196 271 288 278 277 346 298 261 316 353 340 269 258 230 236 225 242 224 191 199 198 198 211 228 221 220 215 223 70 358 42 291 55 305 63 335 325 324 242 311 348 5 354 28
309 310 309 311 311 312 312 310 310 308 303 305 305 295 285 178 187 195 199 207 227 252 259 239 243 251 255 258 262 269 271 275 283 278 281 289 321 312 282 346 340 327 312 328 320 318 293 316 341 290 358 300 36 295 293 290 252 223 239 224 243 349 252 209 203 201 211 214 220 219 327 35 11 5 344 34 57 1 359 345 354 351 345 4 321 15 14
310 310 312 312 312 312 310 311 309 308 301 307 310 300 284 191 191 196 204 202 224 231 253 311 239 250 253 256 262 264 268 269 270 276 281 279 277 267 287 294 290 288 310 313 280 267 21 337 289 296 320 302 258 250 287 276 255 163 204 208 229 177 241 348 285 20 274 240 239 25 321 356 353 13 35 22 11 355 9 354 345 353 360 356 349 347 343
311 313 312 313 314 313 312 312 312 308 306 309 312 279 288 244 203 204 189 215 228 257 262 262 265 270 267 262 258 259 260 258 261 258 252 262 272 260 262 267 267 277 277 277 306 323 306 314 300 330 314 291 326 307 286 276 268 255 244 215 268 65 320 327 267 267 284 281 266 268 289 308 290 295 0 355 342 347 0 2 347 354 346 349 353 341 344
312 312 313 313 314 313 314 314 313 313 310 307 302 297 289 273 201 178 201 215 226 243 250 242 251 259 260 262 249 236 238 234 241 247 239 243 256 262 251 244 273 271 254 292 322 304 321 306 301 314 289 290 301 280 285 276 273 286 270 234 221 222 227 238 251 250 275 263 281 253 279 296 306 302 320 303 312 348 349 341 348 336 342 339 338 347 332
313 314 314 315 314 315 315 315 317 315 309 306 300 275 260 249 200 187 191 210 215 228 258 271 235 252 266 273 279 269 249 252 207 224 225 219 237 258 275 356 349 300 302 316 293 282 271 282 288 274 282 303 310 286 287 296 277 1 284 273 255 227 236 262 252 254 245 261 280 289 305 304 298 287 279 291 318 4 349 340 328 327 329 339 334 328 330
315 314 315 315 315 316 318 318 317 312 306 299 299 291 277 279 175 187 197 239 275 196 249 266 279 266 262 273 263 261 268 242 210 212 223 231 234 246 261 270 273 267 274 276 275 277 286 276 275 278 284 294 288 279 286 281 283 284 275 276 271 306 207 244 233 251 249 247 256 275 290 284 285 290 281 278 303 349 343 335 326 318 322 330 333 331 321
314 314 316 316 316 317 317 317 314 312 304 294 288 270 256 241 190 184 189 197 198 227 225 257 282 289 275 269 257 232 226 238 247 249 244 238 241 244 249 259 265 268 269 269 265 271 260 266 270 275 275 291 308 289 294 285 280 275 268 262 250 242 238 247 256 253 246 246 250 237 248 255 252 253 298 352 351 330 330 326 319 316 316 318 318 323 317
315 317 318 318 317 316 316 317 318 313 302 291 265 251 243 242 212 211 212 207 203 262 312 307 302 325 305 269 257 241 234 234 239 238 239 242 239 238 242 247 255 263 262 268 269 250 254 258 264 277 283 282 289 278 273 278 281 272 265 259 246 245 248 249 246 242 247 240 244 257 288 296 303 304 300 292 297 309 306 304 309 307 307 303 302 307 313
316 318 319 319 317 317 318 319 319 313 299 276 246 214 185 236 213 211 214 210 231 262 276 290 299 280 287 37 148 215 214 235 227 229 233 234 235 232 236 244 251 259 269 271 269 276 274 276 284 284 281 325 304 281 288 275 263 261 260 265 260 258 259 254 260 275 278 283 289 282 272 266 278 285 295 290 288 287 286 287 290 294 291 287 289 298 304
319 319 319 318 318 319 320 320 317 294 253 207 176 197 170 120 220 213 203 204 194 211 273 297 303 334 340 301 283 283 271 244 247 249 245 241 236 234 233 236 240 245 259 263 278 275 279 287 285 281 285 299 278 293 282 282 274 271 276 273 272 267 257 256 256 254 261 268 276 281 281 279 273 271 270 276 285 284 284 283 285 288 289 292 296 294 293
319 318 316 317 318 321 323 324 330 180 203 196 209 238 276 144 104 180 189 194 189 217 232 259 269 308 295 250 292 292 281 262 258 252 248 245 242 243 235 238 240 237 238 245 248 258 277 269 284 288 299 291 289 278 274 284 280 285 280 282 283 279 273 267 260 255 260 262 261 260 259 259 259 263 263 265 267 267 266 264 263 266 273 280 278 281 287
316 315 315 316 321 324 327 333 156 195 213 248 7 22 28 32 43 61 138 188 164 207 256 278 287 256 295 330 344 302 291 301 277 255 251 252 249 233 237 223 240 221 237 248 262 277 259 267 267 275 275 299 309 269 271 268 268 265 274 284 288 286 280 269 264 261 256 259 265 268 262 258 256 255 262 265 265 257 253 253 258 263 271 267 263 267 275
313 314 316 319 320 328 336 12 261 276 76 76 89 98 66 33 29 137 147 151 170 240 288 269 277 309 275 28 343 11 352 293 261 265 257 229 247 232 245 223 229 235 218 249 214 249 252 258 266 269 273 297 258 260 265 259 255 262 269 275 275 273 270 269 265 261 261 261 255 256 259 258 262 261 262 258 253 256 260 260 260 263 264 266 263 255 251
315 319 313 312 304 267 209 200 165 116 120 152 137 76 76 116 178 8 103 164 330 324 287 302 304 304 307 334 273 71 356 346 320 28 319 91 356 253 254 248 219 252 183 214 239 256 270 286 275 284 302 266 277 277 260 259 261 271 277 277 275 271 267 264 261 261 259 256 252 246 248 257 263 267 268 269 262 248 242 243 248 252 250 250 249 246 246
316 314 321 304 293 276 256 200 185 221 22 54 61 64 98 130 341 156 220 10 236 183 243 247 266 304 311 328 330 22 8 330 321 358 312 35 69 304 64 229 106 213 224 214 261 247 275 263 344 294 258 277 250 245 255 273 283 283 281 280 278 276 272 266 260 258 257 254 252 251 250 250 253 255 252 250 253 251 242 233 239 250 251 242 236 231 219
321 324 304 302 213 233 227 221 283 306 142 32 48 96 114 134 140 139 36 33 344 325 302 328 327 295 308 320 343 3 354 307 306 309 293 295 215 163 155 170 253 220 222 189 257 272 241 349 359 256 19 260 246 232 266 281 283 282 278 272 270 264 257 256 259 256 253 245 243 249 253 252 251 253 252 247 244 244 241 243 239 240 243 238 226 214 229
326 359 141 190 220 232 217 46 66 31 22 51 102 121 136 128 107 181 180 287 164 35 316 313 284 285 293 298 289 300 327 337 6 336 67 347 353 118 176 161 296 60 159 249 252 271 257 236 246 269 261 255 275 289 285 279 273 270 276 282 294 282 257 249 249 251 251 251 249 245 243 248 249 248 249 243 237 237 236 229 227 231 228 211 189 213 212
332 234 199 187 218 299 41 45 25 91 103 113 138 153 169 232 202 151 189 230 174 196 191 184 240 276 281 296 358 18 315 343 316 334 47 18 303 77 106 337 3 328 302 305 251 231 273 242 237 253 267 261 282 291 312 325 328 329 325 311 296 271 253 245 239 241 244 246 245 242 241 241 245 245 237 231 227 229 229 225 223 226 221 194 173 195 195
247 194 217 255 32 37 3 20 88 148 200 155 226 256 198 181 279 266 57 101 160 250 161 223 257 211 246 275 285 300 350 320 332 327 12 46 10 83 321 30 94 279 281 273 254 168 292 254 243 257 265 316 320 342 343 342 345 351 347 341 351 7 304 244 230 227 229 231 234 232 232 238 231 225 219 218 220 222 222 218 219 214 203 178 174 200 193
208 225 351 45 36 53 85 131 121 171 215 244 215 244 339 141 327 3 281 267 164 128 218 309 139 220 211 256 322 357 184 296 357 7 348 59 9 8 247 72 349 334 359 9 11 120 352 336 340 336 348 345 351 342 347 353 356 1 3 4 5 9 30 35 19 240 234 245 253 255 248 235 222 216 211 215 216 214 206 214 216 201 179 202 180 174 185
10 349 38 37 46 64 96 86 189 221 243 248 227 289 13 19 38 346 331 13 24 34 147 302 223 222 193 222 220 303 105 219 265 274 302 35 106 246 10 32 264 6 1 16 1 355 348 336 350 11 0 344 346 346 351 2 5 5 7 5 14 19 21 26 26 27 51 91 155 183 209 214 208 215 209 204 203 211 200 198 210 193 181 173 172 179 152
11 344 13 271 55 113 193 195 213 276 257 5 12 352 16 30 -0 42 30 13 13 342 4 336 5 12 44 197 272 273 106 148 298 302 299 48 14 13 35 23 19 27 38 5 341 10 1 14 359 2 344 340 346 354 357 5 9 8 7 10 13 19 21 20 27 29 29 38 40 40 46 64 95 150 143 110 78 80 64 40 55 271 213 167 174 146 145
244 252 265 238 211 187 273 25 11 7 6 350 7 359 349 18 15 5 29 59 43 330 359 308 336 317 209 217 186 232 33 136 279 241 310 52 188 44 45 48 14 34 14 335 17 18 25 17 5 359 344 345 345 356 5 9 6 14 14 13 16 22 23 20 28 37 35 38 40 39 39 51 49 47 48 60 81 86 77 50 43 58 158 131 126 105 111
209 224 232 348 340 356 306 15 329 34 15 21 8 7 355 11 18 27 28 7 326 30 30 355 347 335 46 17 14 81 163 176 182 245 43 51 16 29 38 37 31 16 252 32 29 31 18 17 357 341 349 351 352 352 349 357 5 9 19 18 17 18 20 22 23 31 31 33 38 42 48 52 50 49 52 48 48 62 61 55 41 43 74 81 90 89 89
342 22 8 3 25 350 35 18 317 35 17 21 4 14 7 5 1 9 10 316 21 22 20 22 351 2 11 343 244 42 348 48 128 3 39 24 56 35 38 41 43 34 37 34 34 33 30 16 358 360 360 6 358 355 354 354 355 5 10 15 18 19 19 19 22 30 30 26 25 32 36 44 51 43 48 44 39 51 58 45 46 56 72 69 67 65 75
22 357 10 24 357 339 66 84 349 32 33 9 20 14 15 21 9 5 14 333 354 50 45 21 14 350 12 360 11 17 12 16 28 23 11 37 45 46 39 55 36 44 45 42 40 35 21 1 4 8 0 12 10 9 9 6 4 9 18 21 14 13 17 26 26 23 22 23 26 33 38 40 42 43 47 44 42 49 45 38 43 53 66 60 52 52 54
62 359 350 324 35 56 32 40 35 39 24 22 24 18 22 18 23 19 9 346 352 332 42 55 35 7 18 3 2 62 37 29 41 27 12 48 41 79 40 41 40 35 40 40 41 33 23 21 18 13 10 11 13 17 19 22 23 23 24 21 23 20 15 17 26 32 32 27 29 31 33 32 29 26 34 44 43 46 44 45 44 46 55 60 56 56 52
55 292 333 31 44 28 39 42 32 43 31 21 17 16 19 9 16 19 7 349 339 327 -0 317 307 282 127 12 349 28 22 23 42 50 33 60 59 42 41 42 49 46 32 26 35 23 33 28 20 20 21 20 18 18 20 23 28 30 30 29 27 23 25 24 19 20 31 36 36 37 34 32 30 28 33 36 32 35 36 39 37 40 47 49 50 52 52
19 336 21 62 39 34 31 26 24 42 27 23 15 11 9 12 17 9 357 348 352 -0 353 342 359 307 358 346 28 29 32 11 34 43 35 49 43 40 35 32 11 33 37 20 21 23 15 24 20 22 21 19 18 22 25 25 25 29 31 33 35 36 35 37 31 25 29 34 35 37 38 38 37 38 38 43 46 43 39 40 41 42 43 46 47 46 44
28 38 2 19 54 50 28 29 12 31 25 26 16 13 0 10 4 12 357 350 354 348 357 45 17 358 15 353 31 36 37 23 34 41 46 51 40 43 40 43 26 17 17 7 17 33 21 18 19 26 23 18 17 18 22 25 25 28 30 30 30 33 35 37 40 40 38 30 32 39 35 37 37 34 33 44 54 53 47 43 42 42 43 42 44 47 48
22 63 60 20 20 30 14 29 18 18 18 15 11 15 358 9 360 358 355 352 350 353 18 13 15 22 17 20 8 22 38 33 44 44 31 42 30 37 30 29 27 20 17 20 28 18 14 19 19 13 22 21 19 16 18 19 23 26 29 32 32 31 34 36 37 38 42 42 36 37 33 31 32 38 38 45 52 51 50 47 47 51 49 45 39 43 46
42 40 40 48 41 32 18 20 28 23 18 17 13 9 1 9 1 355 339 358 6 9 18 12 12 21 22 23 17 9 353 19 41 37 47 48 13 23 360 348 6 11 4 13 16 18 18 19 17 12 20 21 23 20 15 18 22 23 24 28 32 33 31 34 36 37 38 39 39 38 35 33 33 38 42 45 45 46 48 49 47 51 56 57 54 50 51